TimeCST,TemperatureF,Dew PointF,Humidity,Sea Level PressureIn,VisibilityMPH,Wind Direction,Wind SpeedMPH,Gust SpeedMPH,PrecipitationIn,Events,Conditions,WindDirDegrees,DateUTC
12:15 AM,19.4,1.4,46,30.39,10.0,North,4.6,-,N/A,,Clear,350,2013-01-22 06:15:00
12:35 AM,19.4,3.2,49,30.39,10.0,North,4.6,-,N/A,,Clear,350,2013-01-22 06:35:00
12:55 AM,19.4,1.4,46,30.39,10.0,NNW,4.6,-,N/A,,Clear,340,2013-01-22 06:55:00
1:15 AM,19.4,1.4,46,30.40,10.0,NNW,4.6,-,N/A,,Clear,330,2013-01-22 07:15:00
1:35 AM,19.4,3.2,49,30.40,10.0,North,3.5,-,N/A,,Clear,350,2013-01-22 07:35:00
1:55 AM,19.4,5.0,54,30.39,10.0,North,4.6,-,N/A,,Clear,360,2013-01-22 07:55:00
2:15 AM,19.4,1.4,46,30.40,10.0,North,5.8,-,N/A,,Clear,360,2013-01-22 08:15:00
2:35 AM,19.4,-0.4,42,30.40,10.0,North,4.6,-,N/A,,Scattered Clouds,360,2013-01-22 08:35:00
2:55 AM,19.4,-0.4,42,30.40,10.0,North,3.5,-,N/A,,Scattered Clouds,350,2013-01-22 08:55:00
3:15 AM,19.4,-0.4,42,30.40,10.0,North,5.8,-,N/A,,Scattered Clouds,360,2013-01-22 09:15:00
3:35 AM,19.4,-2.2,39,30.40,10.0,NNW,4.6,-,N/A,,Mostly Cloudy,330,2013-01-22 09:35:00
3:55 AM,19.4,-0.4,42,30.40,10.0,NNW,4.6,-,N/A,,Overcast,340,2013-01-22 09:55:00
4:15 AM,19.4,1.4,46,30.40,10.0,North,6.9,-,N/A,,Scattered Clouds,350,2013-01-22 10:15:00
4:35 AM,19.4,-0.4,42,30.40,10.0,North,4.6,-,N/A,,Clear,360,2013-01-22 10:35:00
4:55 AM,19.4,-2.2,39,30.41,10.0,North,6.9,-,N/A,,Clear,360,2013-01-22 10:55:00
5:15 AM,19.4,-4.0,36,30.42,10.0,North,5.8,-,N/A,,Clear,350,2013-01-22 11:15:00
5:35 AM,19.4,-2.2,39,30.42,10.0,North,4.6,-,N/A,,Clear,350,2013-01-22 11:35:00
6:50 AM,17.6,-4.0,38,30.44,25.0,North,5.8,-,N/A,,Scattered Clouds,10,2013-01-22 12:50:00
7:48 AM,17.6,1.4,49,30.44,25.0,NNE,5.8,-,N/A,,Scattered Clouds,20,2013-01-22 13:48:00
8:55 AM,17.6,-2.2,42,30.46,25.0,NNE,5.8,-,N/A,,Mostly Cloudy,20,2013-01-22 14:55:00
9:59 AM,19.4,-2.2,39,30.49,25.0,NNW,5.8,-,N/A,,Overcast,330,2013-01-22 15:59:00
10:59 AM,19.4,-2.2,39,30.48,25.0,NW,5.8,-,N/A,,Mostly Cloudy,310,2013-01-22 16:59:00
12:53 PM,21.2,-2.2,36,30.43,25.0,North,8.1,-,N/A,,Overcast,360,2013-01-22 18:53:00
1:53 PM,21.2,-0.4,39,30.43,25.0,NNE,5.8,-,N/A,,Overcast,30,2013-01-22 19:53:00
2:53 PM,21.2,-0.4,39,30.41,25.0,NW,5.8,-,N/A,,Overcast,310,2013-01-22 20:53:00
3:52 PM,23.0,1.4,39,30.42,25.0,Calm,Calm,-,N/A,,Overcast,0,2013-01-22 21:52:00
4:51 PM,23.0,1.4,39,30.41,25.0,Calm,Calm,-,N/A,,Overcast,0,2013-01-22 22:51:00
5:55 PM,23.0,1.4,39,30.41,25.0,Calm,Calm,-,N/A,,Overcast,0,2013-01-22 23:55:00
6:55 PM,23.0,3.2,43,30.40,10.0,Calm,Calm,-,N/A,,Overcast,0,2013-01-23 00:55:00
7:15 PM,24.8,5.0,43,30.39,10.0,East,3.5,-,N/A,,Overcast,80,2013-01-23 01:15:00
7:35 PM,23.0,5.0,46,30.40,10.0,Calm,Calm,-,N/A,,Overcast,0,2013-01-23 01:35:00
7:55 PM,23.0,5.0,46,30.40,10.0,Calm,Calm,-,N/A,,Overcast,0,2013-01-23 01:55:00
8:15 PM,24.8,5.0,43,30.40,10.0,Calm,Calm,-,N/A,,Overcast,0,2013-01-23 02:15:00
8:35 PM,24.8,5.0,43,30.39,10.0,Calm,Calm,-,N/A,,Overcast,0,2013-01-23 02:35:00
8:55 PM,23.0,6.8,50,30.40,10.0,Calm,Calm,-,N/A,,Overcast,0,2013-01-23 02:55:00
9:15 PM,24.8,6.8,46,30.40,10.0,Calm,Calm,-,N/A,,Overcast,0,2013-01-23 03:15:00
9:35 PM,24.8,5.0,43,30.40,10.0,Calm,Calm,-,N/A,,Overcast,0,2013-01-23 03:35:00
9:55 PM,24.8,6.8,46,30.40,10.0,Calm,Calm,-,N/A,,Overcast,0,2013-01-23 03:55:00
10:15 PM,24.8,6.8,46,30.40,10.0,East,3.5,-,N/A,,Overcast,80,2013-01-23 04:15:00
10:35 PM,24.8,6.8,46,30.40,10.0,ENE,3.5,-,N/A,,Overcast,70,2013-01-23 04:35:00
10:55 PM,23.0,10.4,59,30.40,10.0,ENE,4.6,-,N/A,,Overcast,60,2013-01-23 04:55:00
11:15 PM,23.0,10.4,59,30.40,10.0,ENE,3.5,-,N/A,,Mostly Cloudy,70,2013-01-23 05:15:00
11:35 PM,23.0,10.4,59,30.40,10.0,Calm,Calm,-,N/A,,Scattered Clouds,0,2013-01-23 05:35:00
11:55 PM,21.2,12.2,68,30.40,10.0,Calm,Calm,-,N/A,,Clear,0,2013-01-23 05:55:00